Temp
-12 -12 -12 -13 -12 -13 -12 -13 -12 -13 -13 -12 -12 -12 -13 -12 -12 -13 -13 -13 -12 -12 -12 -12 -12 -12 -11 -11 -11 -12 -12 -12 -12 -12 -12 -11 -12 -12 -12 -12 -12 -12 -12
-12 -12 -12 -12 -12 -13 -12 -13 -12 -12 -13 -12 -12 -11 -12 -12 -12 -12 -13 -12 -12 -13 -12 -12 -12 -11 -10 -11 -12 -12 -11 -12 -12 -12 -12 -12 -12 -12 -12 -12 -12 -12 -13
-13 -13 -13 -12 -12 -12 -12 -12 -12 -12 -13 -13 -13 -12 -12 -11 -12 -12 -13 -12 -13 -12 -12 -12 -12 -12 -12 -12 -12 -12 -12 -12 -12 -12 -12 -12 -12 -12 -12 -12 -12 -12 -13
-13 -13 -13 -13 -12 -12 -12 -12 -12 -13 -12 -12 -13 -13 -13 -13 -13 -13 -12 -12 -12 -12 -12 -12 -12 -13 -13 -12 -12 -12 -12 -12 -12 -12 -12 -12 -12 -12 -12 -13 -13 -13 -13
-13 -13 -13 -12 -12 -12 -12 -12 -12 -12 -12 -12 -12 -12 -13 -13 -13 -13 -13 -13 -13 -13 -13 -12 -12 -12 -12 -12 -12 -12 -12 -12 -12 -12 -12 -12 -12 -13 -13 -13 -13 -13 -13
-12 -13 -12 -12 -12 -12 -12 -12 -12 -12 -12 -12 -12 -12 -12 -13 -13 -13 -14 -13 -13 -13 -12 -12 -12 -12 -12 -12 -12 -12 -12 -12 -12 -12 -12 -13 -13 -13 -13 -13 -13 -13 -13
-13 -13 -13 -13 -13 -13 -12 -12 -12 -12 -12 -12 -12 -13 -13 -13 -13 -13 -13 -13 -12 -12 -12 -12 -12 -12 -12 -12 -12 -12 -12 -12 -12 -13 -13 -13 -13 -13 -13 -13 -14 -14 -14
-13 -13 -13 -13 -13 -13 -12 -12 -12 -13 -13 -13 -12 -12 -12 -13 -13 -13 -13 -12 -12 -12 -12 -12 -12 -12 -12 -12 -13 -13 -13 -13 -13 -13 -13 -13 -14 -14 -14 -14 -14 -14 -14
-13 -13 -13 -13 -13 -13 -13 -13 -13 -13 -12 -12 -12 -12 -12 -12 -13 -13 -13 -13 -13 -13 -13 -13 -13 -13 -13 -13 -13 -13 -13 -13 -13 -13 -14 -14 -14 -14 -14 -14 -14 -14 -15
-12 -12 -13 -13 -13 -13 -13 -13 -13 -12 -12 -12 -12 -12 -12 -12 -12 -12 -12 -12 -12 -12 -12 -12 -12 -12 -12 -13 -13 -13 -13 -14 -14 -14 -13 -14 -14 -14 -14 -14 -14 -14 -14
-12 -12 -12 -12 -12 -13 -13 -13 -12 -12 -12 -12 -12 -12 -12 -13 -13 -13 -12 -12 -12 -12 -13 -12 -12 -13 -13 -13 -14 -14 -13 -13 -13 -14 -14 -14 -14 -14 -15 -15 -15 -15 -15
-12 -12 -12 -12 -12 -12 -12 -12 -12 -12 -12 -12 -12 -12 -13 -13 -13 -13 -13 -13 -13 -13 -13 -13 -13 -13 -13 -14 -13 -13 -13 -13 -14 -14 -14 -14 -14 -15 -15 -14 -14 -14 -14
-12 -12 -12 -12 -12 -12 -12 -12 -12 -12 -12 -12 -12 -12 -12 -13 -13 -13 -13 -13 -13 -13 -13 -13 -13 -13 -13 -13 -12 -13 -13 -14 -14 -14 -14 -14 -14 -14 -14 -14 -14 -14 -14
-12 -12 -12 -12 -12 -12 -12 -12 -12 -12 -12 -12 -12 -12 -12 -13 -13 -13 -13 -13 -13 -13 -13 -13 -13 -13 -13 -13 -13 -13 -13 -14 -14 -14 -14 -14 -14 -14 -14 -14 -15 -15 -15
-12 -12 -12 -12 -12 -12 -12 -12 -12 -12 -12 -12 -13 -13 -13 -13 -13 -13 -13 -13 -13 -13 -13 -13 -13 -13 -13 -13 -13 -13 -14 -14 -14 -14 -14 -14 -15 -15 -15 -15 -15 -15 -15
-12 -12 -12 -12 -13 -12 -12 -12 -13 -13 -13 -13 -13 -13 -13 -13 -13 -13 -13 -13 -13 -13 -13 -13 -13 -13 -13 -13 -14 -13 -14 -14 -14 -14 -15 -15 -15 -15 -15 -15 -15 -15 -15
-13 -13 -13 -12 -13 -13 -13 -13 -13 -13 -13 -13 -13 -13 -13 -13 -13 -13 -13 -13 -13 -13 -13 -13 -13 -13 -13 -13 -13 -14 -14 -15 -14 -15 -14 -14 -15 -15 -15 -15 -15 -16 -16
-13 -13 -13 -13 -13 -13 -13 -13 -13 -13 -13 -13 -13 -13 -13 -13 -13 -13 -13 -13 -13 -13 -13 -13 -13 -13 -14 -14 -14 -15 -15 -14 -14 -14 -14 -14 -15 -15 -15 -15 -15 -16 -17
-13 -14 -14 -14 -14 -14 -13 -13 -13 -13 -13 -13 -13 -13 -13 -13 -13 -13 -13 -13 -13 -13 -13 -13 -14 -14 -14 -14 -14 -15 -15 -14 -14 -14 -15 -15 -15 -15 -16 -16 -17 -17 -18
-13 -14 -14 -14 -14 -14 -14 -14 -14 -13 -14 -14 -13 -13 -13 -13 -13 -13 -13 -13 -13 -13 -14 -14 -14 -14 -15 -15 -15 -15 -15 -15 -15 -15 -15 -15 -16 -16 -17 -17 -19 -20 -19
-13 -14 -14 -14 -14 -14 -14 -14 -14 -14 -13 -13 -13 -14 -13 -13 -13 -13 -13 -13 -14 -14 -14 -15 -15 -15 -15 -16 -16 -16 -15 -15 -16 -15 -15 -15 -16 -17 -20 -19 -19 -19 -20
-13 -14 -13 -14 -14 -14 -14 -14 -14 -14 -14 -13 -14 -14 -13 -13 -13 -13 -13 -14 -14 -14 -14 -14 -14 -15 -15 -15 -15 -16 -17 -15 -15 -16 -17 -18 -19 -19 -19 -19 -20 -20 -20
-13 -14 -13 -13 -14 -14 -14 -14 -14 -15 -14 -14 -14 -14 -14 -14 -14 -13 -13 -14 -14 -14 -14 -14 -15 -15 -15 -15 -16 -16 -16 -16 -17 -18 -18 -19 -19 -20 -20 -20 -20 -21 -22
-14 -14 -13 -13 -13 -13 -14 -14 -15 -15 -15 -15 -14 -15 -15 -15 -14 -14 -14 -14 -14 -15 -14 -15 -15 -15 -15 -15 -16 -16 -17 -18 -19 -19 -19 -20 -20 -20 -20 -21 -22 -22 -23
-14 -14 -14 -14 -14 -14 -14 -14 -15 -15 -15 -15 -15 -15 -15 -14 -14 -14 -14 -15 -15 -15 -15 -15 -15 -15 -16 -16 -17 -18 -18 -19 -19 -20 -20 -20 -21 -21 -21 -22 -23 -23 -24
-14 -14 -14 -14 -14 -14 -14 -14 -15 -15 -15 -15 -15 -15 -15 -14 -14 -14 -14 -14 -15 -15 -15 -15 -16 -16 -16 -18 -18 -19 -19 -20 -20 -20 -20 -21 -21 -22 -23 -24 -24 -24 -24
Height
5751 5751 5751 5750 5748 5746 5744 5744 5743 5741 5739 5739 5740 5740 5741 5744 5747 5750 5756 5761 5763 5765 5769 5775 5781 5788 5795 5800 5803 5808 5812 5815 5819 5821 5825 5828 5830 5833 5835 5835 5836 5837 5838
5752 5753 5753 5752 5751 5750 5748 5747 5747 5745 5745 5743 5743 5746 5748 5750 5753 5757 5761 5765 5769 5773 5779 5785 5789 5794 5797 5801 5804 5808 5811 5816 5821 5822 5825 5828 5831 5834 5833 5833 5833 5835 5834
5755 5756 5756 5756 5755 5754 5753 5752 5752 5752 5752 5750 5750 5751 5754 5754 5759 5763 5767 5769 5773 5776 5780 5784 5788 5794 5800 5803 5806 5810 5815 5817 5820 5821 5823 5826 5832 5832 5831 5831 5831 5831 5831
5758 5758 5759 5759 5759 5758 5757 5758 5757 5758 5758 5758 5757 5758 5758 5761 5765 5768 5771 5774 5777 5780 5783 5787 5792 5796 5800 5804 5808 5811 5813 5818 5820 5822 5825 5831 5832 5830 5828 5829 5827 5826 5826
5761 5761 5761 5762 5763 5762 5761 5762 5763 5763 5763 5763 5764 5764 5765 5767 5769 5773 5777 5781 5783 5785 5789 5794 5796 5800 5803 5808 5811 5813 5817 5819 5822 5827 5826 5825 5826 5826 5825 5822 5820 5821 5819
5764 5764 5764 5764 5765 5766 5765 5766 5766 5767 5768 5768 5770 5771 5772 5775 5777 5780 5782 5784 5788 5791 5793 5795 5800 5804 5807 5810 5813 5813 5817 5817 5818 5819 5821 5822 5822 5821 5818 5816 5817 5815 5812
5766 5766 5766 5767 5768 5769 5769 5770 5770 5772 5773 5775 5775 5777 5779 5781 5783 5785 5787 5789 5793 5794 5796 5799 5804 5806 5808 5810 5812 5813 5814 5818 5819 5819 5819 5817 5817 5814 5812 5812 5810 5808 5804
5767 5768 5769 5770 5771 5772 5773 5774 5775 5776 5777 5779 5780 5782 5784 5786 5787 5789 5792 5795 5797 5800 5802 5805 5807 5809 5810 5811 5813 5814 5814 5813 5813 5814 5813 5812 5811 5809 5807 5806 5803 5801 5797
5769 5770 5771 5772 5773 5775 5777 5778 5778 5780 5781 5783 5784 5785 5787 5788 5790 5791 5793 5795 5797 5799 5802 5803 5805 5806 5808 5810 5810 5809 5809 5809 5809 5808 5808 5807 5805 5803 5801 5798 5794 5791 5787
5771 5771 5773 5774 5776 5778 5780 5781 5782 5782 5783 5784 5785 5787 5789 5790 5791 5793 5795 5796 5798 5799 5801 5802 5803 5804 5804 5804 5804 5804 5805 5805 5805 5804 5802 5800 5798 5795 5792 5789 5785 5781 5776
5771 5773 5774 5775 5777 5779 5780 5782 5783 5784 5784 5785 5786 5787 5789 5790 5791 5792 5794 5796 5797 5797 5798 5798 5799 5799 5800 5800 5800 5801 5800 5800 5799 5798 5795 5793 5790 5788 5784 5779 5774 5768 5762
5772 5773 5775 5776 5778 5779 5780 5782 5783 5784 5785 5786 5787 5788 5789 5789 5790 5791 5792 5793 5794 5795 5795 5796 5797 5797 5797 5797 5796 5797 5796 5794 5793 5792 5789 5786 5783 5779 5774 5769 5764 5758 5751
5771 5773 5775 5776 5778 5779 5780 5782 5783 5785 5785 5786 5787 5787 5788 5789 5789 5790 5791 5791 5792 5793 5793 5794 5794 5794 5793 5793 5792 5792 5791 5790 5788 5785 5781 5777 5773 5769 5763 5758 5752 5745 5739
5768 5771 5773 5775 5777 5778 5779 5781 5782 5783 5784 5784 5785 5786 5786 5787 5787 5788 5788 5788 5789 5790 5790 5791 5790 5790 5789 5789 5788 5787 5785 5783 5780 5777 5773 5769 5764 5759 5753 5746 5739 5733 5725
5764 5767 5770 5772 5774 5776 5777 5778 5779 5780 5781 5781 5782 5783 5784 5783 5784 5784 5785 5785 5785 5786 5785 5785 5785 5785 5785 5784 5782 5780 5778 5774 5771 5767 5761 5756 5751 5745 5739 5733 5726 5719 5712
5757 5761 5764 5766 5768 5770 5772 5773 5774 5775 5776 5776 5777 5778 5779 5780 5779 5780 5780 5781 5781 5780 5780 5779 5779 5778 5776 5775 5772 5769 5767 5764 5759 5754 5749 5744 5738 5730 5724 5718 5711 5704 5696
5752 5754 5757 5759 5762 5764 5765 5767 5768 5768 5769 5771 5771 5772 5773 5775 5774 5774 5774 5774 5774 5774 5773 5772 5770 5769 5767 5765 5762 5758 5754 5750 5746 5741 5736 5730 5724 5717 5710 5701 5694 5686 5677
5744 5747 5749 5751 5754 5756 5758 5759 5760 5762 5763 5764 5765 5765 5766 5767 5767 5767 5767 5766 5766 5766 5765 5764 5762 5761 5758 5755 5751 5747 5741 5737 5732 5727 5721 5715 5709 5703 5695 5687 5678 5669 5660
5737 5740 5743 5746 5747 5749 5750 5751 5753 5755 5756 5756 5759 5758 5759 5759 5759 5759 5759 5758 5757 5757 5756 5755 5752 5750 5747 5744 5740 5735 5730 5724 5718 5710 5704 5701 5694 5685 5679 5671 5662 5653 5643
5729 5732 5734 5737 5738 5740 5741 5743 5745 5746 5747 5747 5751 5752 5751 5751 5751 5750 5750 5749 5748 5747 5745 5744 5741 5739 5736 5732 5728 5723 5718 5713 5707 5702 5697 5688 5680 5671 5661 5655 5646 5637 5627
5720 5724 5727 5726 5730 5732 5733 5734 5735 5736 5738 5740 5742 5744 5742 5742 5742 5741 5740 5738 5737 5735 5734 5731 5729 5726 5722 5719 5713 5708 5703 5698 5695 5687 5679 5672 5665 5658 5648 5641 5633 5622 5610
5709 5712 5716 5718 5719 5719 5722 5724 5726 5726 5728 5731 5733 5732 5732 5732 5732 5732 5730 5728 5726 5724 5722 5719 5715 5711 5708 5704 5699 5694 5691 5684 5677 5672 5665 5659 5653 5646 5638 5628 5618 5607 5595
5699 5701 5705 5708 5710 5711 5712 5716 5716 5716 5717 5721 5722 5721 5721 5722 5721 5721 5720 5717 5716 5714 5710 5708 5704 5699 5694 5691 5686 5682 5675 5669 5666 5661 5655 5649 5642 5634 5624 5615 5603 5590 5578
5690 5692 5695 5696 5700 5704 5705 5706 5708 5708 5709 5711 5711 5712 5711 5711 5711 5709 5708 5706 5705 5702 5698 5694 5691 5687 5681 5678 5674 5670 5663 5660 5656 5651 5644 5637 5629 5620 5610 5598 5588 5577 5566
5678 5682 5684 5686 5690 5692 5693 5696 5698 5699 5699 5699 5700 5700 5699 5698 5697 5696 5694 5691 5690 5687 5685 5684 5679 5675 5670 5666 5662 5658 5654 5651 5646 5640 5634 5626 5615 5605 5596 5586 5574 5560 5546
5667 5669 5671 5675 5677 5680 5683 5685 5686 5688 5689 5689 5688 5688 5687 5685 5682 5680 5680 5678 5677 5675 5673 5670 5666 5663 5659 5656 5652 5648 5645 5641 5636 5630 5622 5612 5604 5595 5584 5573 5561 5548 5535
Wind_Speed
4 3 5 7 8 10 11 15 18 14 17 17 19 23 21 24 21 19 22 25 27 19 26 31 23 17 22 23 25 25 22 19 17 15 12 13 13 14 12 10 9 9 10
5 3 4 6 5 9 12 14 18 18 20 19 22 28 21 16 16 16 21 18 24 22 19 16 13 27 27 25 24 20 19 18 16 15 15 14 14 13 9 11 11 11 13
6 6 6 8 7 9 15 13 17 20 22 24 29 22 24 26 35 23 25 20 15 24 27 25 22 23 26 24 21 19 17 17 16 15 14 12 13 15 12 11 11 12 14
10 7 8 10 10 11 14 16 18 19 19 22 24 25 27 28 25 22 17 18 17 13 18 21 18 23 21 19 20 20 18 16 14 13 13 15 15 13 14 14 13 15 17
9 10 9 9 11 11 11 12 14 15 18 18 18 21 21 21 26 30 26 24 22 21 21 20 21 21 22 22 20 19 17 15 14 15 13 11 12 12 13 13 15 17 22
7 9 8 7 9 11 13 14 13 14 15 19 20 20 21 21 21 21 21 22 21 21 22 21 19 20 19 17 14 13 12 10 9 7 8 10 13 14 14 17 21 24 27
8 9 10 8 9 12 13 14 15 16 17 18 19 20 20 19 20 19 20 20 19 17 16 14 14 13 13 12 10 9 8 10 10 10 11 12 14 17 20 24 27 28 29
8 9 11 11 11 12 14 16 17 18 17 16 16 15 15 14 13 13 14 15 15 14 14 14 13 14 12 9 9 10 10 10 11 12 14 18 21 24 26 26 28 30 35
8 9 11 12 12 12 13 15 16 14 13 12 12 10 9 9 8 8 8 8 8 7 8 8 7 8 9 11 11 10 9 10 14 16 19 22 24 25 26 30 35 38 41
10 10 10 11 11 12 11 10 9 9 7 7 6 5 5 4 4 6 7 8 9 9 8 7 7 8 8 8 9 10 13 16 19 19 22 24 26 28 33 37 41 43 45
11 10 10 10 10 10 10 7 6 4 4 3 2 2 2 3 5 6 7 9 10 11 9 8 9 10 10 12 14 17 20 22 21 23 25 28 31 34 38 40 42 44 48
12 11 11 11 10 9 9 7 6 5 5 4 3 3 3 3 4 5 8 9 12 15 16 17 16 15 16 19 21 21 23 24 26 28 31 33 36 39 42 45 46 48 50
18 15 13 12 12 10 9 8 6 5 5 5 5 6 7 8 9 10 11 12 13 15 18 19 18 19 22 22 23 25 27 29 31 34 37 38 41 44 47 49 52 53 55
21 20 18 16 15 13 12 10 10 11 11 11 10 9 9 10 13 14 15 17 17 17 18 18 20 23 26 28 29 31 32 34 37 40 42 46 48 50 51 53 56 60 64
22 25 24 22 21 20 19 17 17 16 17 17 17 15 15 16 16 16 17 17 18 19 21 23 25 27 28 29 31 33 36 38 41 44 48 51 53 54 57 58 59 58 67
23 23 25 26 26 27 26 26 25 23 23 23 23 22 22 20 21 21 21 22 23 25 26 28 29 30 31 32 35 38 39 41 46 51 55 56 56 58 61 62 64 68 72
28 27 27 26 26 28 30 30 29 29 27 26 26 26 25 23 24 24 24 24 25 25 26 27 28 29 31 35 39 43 47 48 48 51 50 56 63 69 64 65 70 73 75
30 30 31 28 28 27 28 30 31 31 31 29 28 28 26 26 26 26 27 27 27 27 27 29 31 33 37 41 44 48 49 50 54 53 55 60 69 65 63 68 73 72 67
31 28 28 26 25 26 29 31 30 30 31 32 28 29 28 27 27 27 27 28 30 30 33 34 36 40 42 44 47 51 52 56 60 59 63 65 62 55 61 63 61 64 68
35 33 33 34 34 34 33 33 32 32 32 34 31 30 30 29 28 29 30 32 33 34 36 38 40 43 45 47 49 51 50 57 57 59 68 66 59 67 57 60 65 66 70
39 40 42 40 41 45 34 35 33 36 37 36 34 31 34 32 32 33 33 35 34 36 38 40 43 46 48 49 55 56 53 54 57 62 61 59 58 59 58 60 65 70 74
44 41 42 41 38 36 35 36 36 38 38 37 37 38 37 38 38 37 36 37 38 42 41 41 42 44 45 52 56 59 58 54 60 57 51 51 52 55 59 62 66 70 73
45 43 41 43 42 41 39 37 39 39 39 36 37 38 38 38 40 41 43 45 44 42 41 45 51 54 58 56 57 53 54 49 48 46 47 51 54 56 59 64 68 73 74
44 48 46 45 43 41 39 37 34 38 38 36 37 36 38 41 43 45 45 48 45 43 44 53 57 54 47 48 44 49 44 42 42 46 49 50 54 58 61 66 69 70 71
46 49 50 49 46 47 38 36 40 40 40 38 38 40 41 43 45 49 51 46 46 51 54 59 52 50 44 42 40 39 39 39 44 45 48 51 55 59 64 65 66 67 72
42 49 58 51 49 52 49 40 42 41 44 43 41 42 44 48 54 52 52 55 51 52 52 50 45 42 40 38 35 33 37 41 43 45 48 53 55 58 58 59 63 68 72
Wind_Direction
145 51 53 64 44 45 57 71 84 73 93 99 122 132 131 121 131 142 152 151 177 149 118 125 116 118 147 163 170 181 193 187 188 173 189 208 215 218 207 207 223 248 266
117 61 41 75 57 56 64 79 85 93 85 100 114 140 148 149 162 150 146 161 145 164 154 171 134 157 167 180 169 169 176 180 189 192 191 189 190 201 214 227 236 250 272
98 77 73 95 87 82 90 93 96 99 92 95 102 127 123 121 142 141 145 170 168 162 157 162 182 165 166 157 160 169 175 181 182 177 175 188 207 212 222 241 253 263 280
80 89 91 92 106 104 97 102 96 105 103 98 92 85 105 139 142 143 141 159 158 168 164 150 139 162 159 168 171 166 165 170 175 181 188 207 219 231 237 258 277 291 290
93 104 104 98 101 112 107 101 110 114 109 98 97 103 105 100 111 116 124 127 130 126 133 144 145 153 156 163 166 167 175 177 187 201 210 227 251 263 271 283 290 290 296
92 96 100 103 115 114 118 120 111 108 110 111 112 110 112 116 122 121 122 125 130 132 136 136 146 155 161 168 170 166 181 194 214 226 247 254 265 275 286 295 293 295 297
108 109 107 114 118 122 123 121 118 114 110 107 107 112 118 124 126 129 133 135 141 142 143 147 155 159 164 171 181 188 203 219 230 251 265 278 286 292 295 294 293 293 299
119 115 116 115 119 123 121 121 119 115 109 105 105 107 113 119 123 128 136 144 148 149 150 156 166 176 179 185 205 221 229 244 255 268 287 294 293 293 294 294 296 304 307
149 136 128 127 129 128 127 123 121 116 110 107 105 105 111 120 131 140 147 154 156 158 157 159 169 183 197 210 221 232 250 272 289 294 293 292 293 294 297 299 299 300 299
173 158 147 139 143 145 147 142 134 125 117 109 104 99 100 120 143 160 171 182 184 184 192 201 214 226 237 249 265 276 281 277 274 285 297 302 303 300 297 297 299 303 307
180 174 167 161 160 166 174 185 189 180 167 157 154 165 216 233 235 233 234 230 219 211 213 236 249 251 255 261 264 266 271 282 296 303 301 299 299 300 300 299 299 301 302
200 192 184 175 171 165 164 168 174 175 172 179 188 196 206 221 240 252 249 245 242 241 249 256 259 264 261 263 269 278 286 289 291 291 293 297 299 299 299 297 297 299 300
215 209 205 201 191 189 188 192 203 215 225 236 244 249 250 246 240 238 243 250 251 254 256 260 261 264 267 271 278 283 285 288 290 292 293 294 295 294 297 300 303 300 300
218 222 218 220 220 219 222 232 244 249 254 257 260 269 273 269 262 259 259 261 263 264 267 270 269 270 272 276 282 287 290 291 291 291 291 293 294 295 299 300 300 299 300
227 228 232 236 240 244 248 254 259 260 259 261 263 268 274 275 276 274 273 276 279 280 279 278 278 280 283 286 289 291 290 289 289 290 291 293 294 298 296 299 300 301 304
230 234 238 239 243 246 249 252 257 258 257 258 260 264 269 276 278 280 279 276 275 276 279 283 286 288 289 290 292 291 291 291 294 295 296 295 294 293 292 297 300 298 301
234 236 239 243 249 251 252 253 254 255 256 258 263 268 272 274 275 278 278 279 279 280 281 282 284 286 288 289 290 293 295 291 300 303 298 294 297 295 292 295 299 297 295
240 240 241 243 247 252 256 256 256 257 257 258 261 267 271 273 275 277 279 281 282 282 282 282 283 285 288 293 297 300 305 290 298 299 303 302 298 293 288 287 288 293 299
238 238 242 254 249 253 254 256 258 258 259 259 260 265 269 272 275 278 280 280 281 284 286 288 289 291 291 294 296 298 300 300 296 293 293 291 295 290 292 296 300 308 311
236 242 246 249 248 251 250 251 255 258 256 259 260 267 268 268 270 274 279 283 286 288 288 290 289 290 293 294 296 302 301 293 299 294 293 294 284 299 301 306 316 315 312
243 242 247 246 256 261 247 251 252 257 259 261 265 266 268 270 273 275 277 280 284 287 288 289 289 289 290 292 291 295 298 297 296 293 289 297 297 312 319 312 313 317 317
240 247 249 247 252 241 244 248 255 261 261 262 266 266 268 271 273 273 273 277 278 283 290 294 294 300 299 299 296 293 291 284 289 302 302 311 316 311 314 317 317 319 321
242 248 246 243 243 248 248 256 259 257 260 264 265 267 268 270 272 276 279 280 284 288 289 292 295 294 298 298 293 289 292 302 306 311 314 312 314 314 315 318 322 325 326
243 250 252 251 244 254 249 256 252 254 260 262 265 270 272 273 276 277 278 280 283 280 289 297 292 287 284 286 281 293 305 309 310 310 312 314 314 318 322 325 326 325 329
245 247 249 249 255 253 247 252 252 253 259 265 269 271 274 278 281 281 278 280 285 278 276 287 290 292 283 289 303 307 306 306 310 313 314 314 321 325 325 326 330 338 340
247 248 244 249 248 244 249 248 248 252 257 261 266 273 275 279 285 286 281 281 281 280 278 284 288 291 302 303 299 301 306 309 312 313 316 322 324 325 328 339 346 346 345